Weather History for PABR - July, 2014

Change the Weather History Date:

Monday, July 7, 2014

  Actual Average Record
Temperature  
Mean Temperature 35 °F 41 °F  
Max Temperature 38 °F 47 °F 73 °F (2007)
Min Temperature 32 °F 35 °F 26 °F (1936)
Degree Days  
Heating Degree Days 30 24  
Month to date heating degree days 171 171  
Since 1 June heating degree days 1104 1051  
Since 1 July heating degree days 171 171  
Cooling Degree Days 0    
Month to date cooling degree days 0  
Year to date cooling degree days 0  
Since 1 June cooling degree days 0  
Moisture  
Dew Point 32 °F    
Average Humidity 0    
Maximum Humidity 0    
Minimum Humidity 0    
Precipitation  
Precipitation 0.00 in 0.03 in 0.19 in (1944)
Month to date precipitation 0.05 0.18  
Year to date precipitation 3.14 1.20  
Snow  
Snow 0.00 in 0.00 in 0.30 in (1979)
Month to date snowfall 0.0 0.0  
Since 1 June snowfall 0.9 0.7  
Since 1 July snowfall 0.0 0.0  
Snow Depth 0.00 in    
Sea Level Pressure  
Sea Level Pressure 30.11 in    
Wind  
Wind Speed 15 mph (NE)    
Max Wind Speed 21 mph    
Max Gust Speed 23 mph    
Visibility 2 miles    
Events Fog    
T = Trace of Precipitation, MM = Missing Value Source: NWS Daily Summary

Daily Weather History Graph

Daily Weather History Graph

Search for Another Location

Airport or City:

Trip Planner

Search our weather history database for the weather conditions in past years. The results will help you decide how hot, cold, wet, or windy it might be!

Date:

Astronomy

Dec. 31, 1969 Rise Set
Actual Time Sun does not rise Sun does not rise
Civil Twilight Sun does not rise Sun does not rise
Nautical Twilight Sun does not rise Sun does not rise
Astronomical Twilight Sun does not rise Sun does not rise
Moon 8:04 PM AKDT (7/7) 12:54 AM AKDT (7/7)
Length of Visible Light 24h 00m
Length of Day
24h 00m
Waxing Gibbous, 73% of the Moon is Illuminated
Jul 7
Waxing Gibbous
Jul 12
Full
Jul 18
Last Quarter
Jul 26
New
Aug 3
First Quarter

Hourly Weather History & Observations

Time (AKDT) Temp. Windchill Dew Point Humidity Pressure Visibility Wind Dir Wind Speed Gust Speed Precip Events Conditions
12:53 AM 33.1 °F 24.9 °F 32.0 °F 96% 30.12 in 0.2 mi NNE 10.4 mph - N/A Fog Fog
1:36 AM 33.1 °F 25.5 °F 32.0 °F 96% 30.12 in 0.2 mi NNE 9.2 mph - N/A Fog Fog
1:50 AM 32.0 °F 23.6 °F 32.0 °F 100% 30.12 in 0.2 mi NNE 10.4 mph - N/A Fog Fog
1:53 AM 33.1 °F 24.9 °F 32.0 °F 96% 30.12 in 0.2 mi NNE 10.4 mph - N/A Fog Fog
2:53 AM 33.1 °F 24.9 °F 32.0 °F 96% 30.13 in 0.2 mi North 10.4 mph - N/A Fog Fog
3:36 AM 33.1 °F 24.4 °F 32.0 °F 96% 30.12 in 0.8 mi NNE 11.5 mph - N/A   Mist
3:53 AM 33.1 °F 23.9 °F 32.0 °F 96% 30.12 in 0.5 mi NNE 12.7 mph - N/A Fog Fog
4:53 AM 33.1 °F 23.9 °F 32.0 °F 96% 30.12 in 0.2 mi NNE 12.7 mph - N/A Fog Fog
5:53 AM 33.1 °F 23.9 °F 32.0 °F 96% 30.12 in 0.5 mi NNE 12.7 mph - N/A Fog Fog
6:53 AM 33.1 °F 23.9 °F 32.0 °F 96% 30.13 in 0.5 mi NNE 12.7 mph - N/A Fog Fog
7:42 AM 33.1 °F 23.4 °F 32.0 °F 96% 30.12 in 0.2 mi NE 13.8 mph - N/A Fog Fog
7:50 AM 33.8 °F 24.3 °F 33.8 °F 100% 30.12 in 0.2 mi NE 13.8 mph - N/A Fog Fog
7:53 AM 33.1 °F 23.4 °F 32.0 °F 96% 30.13 in 0.2 mi NE 13.8 mph - N/A Fog Fog
8:38 AM 33.1 °F 24.4 °F 32.0 °F 96% 30.13 in 0.8 mi NE 11.5 mph - N/A   Mist
8:45 AM 33.1 °F 24.4 °F 32.0 °F 96% 30.13 in 1.2 mi NNE 11.5 mph - N/A   Overcast
8:53 AM 33.1 °F 24.4 °F 32.0 °F 96% 30.14 in 0.8 mi NE 11.5 mph - N/A   Overcast
9:10 AM 34.0 °F 25.0 °F 32.0 °F 92% 30.13 in 0.5 mi NNE 12.7 mph - N/A Fog Fog
9:18 AM 34.0 °F 25.0 °F 32.0 °F 92% 30.13 in 1.0 mi NNE 12.7 mph - N/A   Mist
9:53 AM 34.0 °F 25.0 °F 32.0 °F 92% 30.13 in 0.8 mi NNE 12.7 mph - N/A   Mist
10:02 AM 34.0 °F 24.6 °F 33.1 °F 96% 30.13 in 1.0 mi NE 13.8 mph - N/A   Overcast
10:50 AM 33.8 °F 23.9 °F 32.0 °F 93% 30.12 in 3.0 mi NE 15.0 mph - N/A   Overcast
10:53 AM 35.1 °F 25.9 °F 33.1 °F 92% 30.13 in 3.0 mi NNE 13.8 mph - N/A   Overcast
11:53 AM 35.1 °F 25.9 °F 32.0 °F 89% 30.13 in 6.0 mi NNE 13.8 mph - N/A   Overcast
12:53 PM 36.0 °F 27.1 °F 32.0 °F 86% 30.13 in 4.0 mi NNE 13.8 mph - N/A   Overcast
1:53 PM 36.0 °F 26.7 °F 33.1 °F 89% 30.13 in 6.0 mi NNE 15.0 mph - N/A   Overcast
2:53 PM 37.0 °F 27.4 °F 33.1 °F 86% 30.12 in 10.0 mi NE 17.3 mph - N/A   Overcast
3:53 PM 37.9 °F 28.5 °F 33.1 °F 83% 30.12 in 10.0 mi NE 17.3 mph - N/A   Overcast
4:53 PM 37.9 °F 28.9 °F 33.1 °F 83% 30.12 in 9.0 mi NE 16.1 mph - N/A   Overcast
5:53 PM 36.0 °F 26.0 °F 33.1 °F 89% 30.11 in 3.0 mi NE 17.3 mph - N/A   Overcast
6:23 PM 36.0 °F 26.7 °F 32.0 °F 86% 30.10 in 2.0 mi NNE 15.0 mph - N/A   Overcast
6:41 PM 35.1 °F 24.8 °F 32.0 °F 89% 30.10 in 1.2 mi NE 17.3 mph - N/A   Overcast
6:53 PM 35.1 °F 24.5 °F 32.0 °F 89% 30.10 in 1.2 mi NE 18.4 mph - N/A   Overcast
7:28 PM 35.1 °F 24.8 °F 33.1 °F 92% 30.09 in 0.5 mi NNE 17.3 mph - N/A Fog Fog
7:37 PM 35.1 °F 24.5 °F 32.0 °F 89% 30.09 in 1.0 mi NE 18.4 mph - N/A   Overcast
7:53 PM 35.1 °F 24.5 °F 33.1 °F 92% 30.09 in 0.8 mi NE 18.4 mph - N/A   Overcast
8:20 PM 35.1 °F 24.8 °F 32.0 °F 89% 30.08 in 1.2 mi NE 17.3 mph - N/A   Overcast
8:37 PM 35.1 °F 25.2 °F 32.0 °F 89% 30.08 in 3.0 mi NE 16.1 mph - N/A   Overcast
8:41 PM 35.1 °F 25.2 °F 32.0 °F 89% 30.08 in 1.5 mi NE 16.1 mph - N/A   Overcast
8:53 PM 35.1 °F 24.5 °F 32.0 °F 89% 30.09 in 1.5 mi NE 18.4 mph - N/A   Overcast
9:53 PM 34.0 °F 22.7 °F 32.0 °F 92% 30.10 in 1.5 mi NE 19.6 mph - N/A   Overcast
10:53 PM 33.1 °F 22.6 °F 32.0 °F 96% 30.09 in 1.0 mi NE 16.1 mph - N/A   Overcast
11:35 PM 33.1 °F 22.6 °F 30.9 °F 92% 30.09 in 0.8 mi NE 16.1 mph - N/A   Overcast
11:53 PM 33.1 °F 23.0 °F 30.9 °F 92% 30.09 in 0.8 mi NE 15.0 mph - N/A   Overcast